FALCON 9 DEB (53443 NORAD) Tracking and Keplerian Element Data

This shows tracking and keplerian element data for the satellite.

Feedback or suggestion? Click here.




ElementValue
Catalog53443
NameFALCON 9 DEB
Epoch Orbit323
Epoch Day241.94371718
Epoch Year2022
RAAN145.7455
Inclination53.2157
Eccentricity0.0008524
Argument of Perigee137.4624
Mean Anonmoly222.7087
Mean Motion16.41482682
Decay Rate0.06772048
L11 53443U 22097BH 22241.94371718 .06772048 12296-4 40306-3 0 9994
L22 53443 53.2157 145.7455 0008524 137.4624 222.7087 16.41482682 3239

Live tracking and technical data element details for FALCON 9 DEB (NORAD 53443). FALCON 9 DEB can be tracked NOW for your location showing map with azimuth and elevation plus other details from your city location.

Track the satellite on the map from your city or location and see movement details for azimuth, elevation, latitude, longitude, range, height, and movement on the map or in text.







IsCatalogInMostPopularTable: catalog: 53443, numindb: 2
Update: records affected: 1



GetName: 53443 FALCON 9 DEB

Hit Count: updated at: Wed, 28 Sep 2022 22:38:15 GMT